St. Johnsbury, VT

10:33 AM EDT on March 29, 2017 (GMT -0400)
St. Johnsbury

Weather History for K1V4 - April, 2013

Change the Weather History Date:

Sunday, April 28, 2013

  Actual Average Record
Temperature  
Mean Temperature 50 °F 50 °F  
Max Temperature 70 °F 62 °F 92 °F (1990)
Min Temperature 30 °F 37 °F 19 °F (1947)
Degree Days  
Heating Degree Days 15 15  
Month to date heating degree days 672 589  
Since 1 July heating degree days 7204 7389  
Cooling Degree Days 0 0  
Month to date cooling degree days 0 0  
Year to date cooling degree days 0 0  
Moisture  
Dew Point 29 °F    
Average Humidity 56    
Maximum Humidity 92    
Minimum Humidity 20    
Precipitation  
Precipitation 0.00 in 0.10 in 1.60 in (1920)
Month to date precipitation 2.44 2.65  
Year to date precipitation 7.74 9.84  
Sea Level Pressure  
Sea Level Pressure 30.24 in    
Wind  
Wind Speed - (North)    
Max Wind Speed -    
Max Gust Speed -    
T = Trace of Precipitation, MM = Missing Value Source: NWS Daily Summary

Daily Weather History Graph

Daily Weather History Graph

Search for Another Location

Airport or City:

Trip Planner

Search our weather history database for the weather conditions in past years. The results will help you decide how hot, cold, wet, or windy it might be!

Date:

Astronomy

Apr. 28, 2013 Rise Set
Actual Time 5:42 AM EDT 7:48 PM EDT
Civil Twilight 5:11 AM EDT 8:20 PM EDT
Nautical Twilight 4:32 AM EDT 8:59 PM EDT
Astronomical Twilight 3:49 AM EDT 9:43 PM EDT
Moon 11:20 PM EDT (4/28) 7:52 AM EDT (4/28)
Length of Visible Light 15h 09m
Length of Day
14h 06m
Waning Gibbous, 89% of the Moon is Illuminated
Apr 28
Waning Gibbous
May 2
Last Quarter
May 9
New
May 18
First Quarter
May 25
Full

Hourly Weather History & Observations

Time (EDT) Temp. Dew Point Humidity Pressure Visibility Wind Dir Wind Speed Gust Speed Precip Events Conditions
12:54 AM 37.0 °F 30.0 °F 76% 30.32 in - North - - N/A   Unknown
1:54 AM 35.1 °F 28.9 °F 78% 30.32 in - North - - N/A   Unknown
2:54 AM 33.1 °F 28.9 °F 85% 30.31 in - North - - N/A   Unknown
3:54 AM 30.9 °F 27.0 °F 85% 30.32 in - North - - N/A   Unknown
4:54 AM 30.0 °F 28.0 °F 92% 30.32 in - North - - N/A   Unknown
5:54 AM 30.0 °F 27.0 °F 88% 30.32 in - North - - N/A   Unknown
6:54 AM 30.9 °F 28.0 °F 89% 30.32 in - North - - N/A   Unknown
7:54 AM 35.1 °F 28.9 °F 78% 30.33 in - North - - N/A   Unknown
8:54 AM 42.1 °F 28.9 °F 60% 30.32 in - North - - N/A   Unknown
9:54 AM 51.1 °F 30.0 °F 44% 30.31 in - North - - N/A   Unknown
10:54 AM 59.0 °F 27.0 °F 29% 30.29 in - North - - N/A   Unknown
11:54 AM 64.0 °F 28.0 °F 26% 30.26 in - North - - N/A   Unknown
12:54 PM 64.9 °F 30.0 °F 27% 30.24 in - North - - N/A   Unknown
1:54 PM 66.0 °F 28.9 °F 25% 30.22 in - North - - N/A   Unknown
2:54 PM 66.9 °F 27.0 °F 22% 30.19 in - North - - N/A   Unknown
3:54 PM 68.0 °F 26.1 °F 21% 30.17 in - North - - N/A   Unknown
4:54 PM 69.1 °F 27.0 °F 21% 30.15 in - North - - N/A   Unknown
5:54 PM 69.1 °F 28.0 °F 22% 30.14 in - North - - N/A   Unknown
6:54 PM 68.0 °F 28.0 °F 22% 30.13 in - North - - N/A   Unknown
7:54 PM 63.0 °F 30.9 °F 30% 30.13 in - North - - N/A   Unknown
8:54 PM 59.0 °F 33.1 °F 38% 30.14 in - North - - N/A   Unknown
9:54 PM 57.0 °F 34.0 °F 42% 30.16 in - North - - N/A   Unknown
10:54 PM 55.9 °F 34.0 °F 44% 30.17 in - North - - N/A   Unknown
11:54 PM 53.1 °F 34.0 °F 48% 30.17 in - North - - N/A   Unknown